Regional Weather Roundup
Issued by NWS Raleigh/Durham, NC

Home | Current Version | Previous Version | Text Only | Print | Product List | Glossary On
Versions: 1 2 3 4 5 6 7 8 9 10 11 12 13 14 15 16 17 18 19 20 21 22 23 24 25 26 27 28 29 30 31 32 33 34 35 36 37 38 39 40 41 42 43 44 45 46 47 48 49 50
000
ASUS42 KRAH 231710
RWRRAH
NORTH CAROLINA WEATHER ROUNDUP
NATIONAL WEATHER SERVICE RALEIGH NC
100 PM EDT SUN APR 23 2017

NOTE: "FAIR" INDICATES FEW OR NO CLOUDS BELOW 12,000 FEET WITH NO
SIGNIFICANT WEATHER AND/OR OBSTRUCTIONS TO VISIBILITY.

NCZ001-053-055-056-065-067-231800-
WESTERN NORTH CAROLINA

CITY           SKY/WX    TMP DP  RH WIND       PRES   REMARKS
ASHEVILLE      NOT AVBL
JEFFERSON      LGT RAIN  44  43  97 E9        30.00
HICKORY        NOT AVBL
RUTHERFORDTON  NOT AVBL
MOUNT AIRY     NOT AVBL
BOONE          NOT AVBL
$$

NCZ021-022-025-041-071-084-088-231800-
CENTRAL NORTH CAROLINA

CITY           SKY/WX    TMP DP  RH WIND       PRES   REMARKS
CHARLOTTE      LGT RAIN  53  50  89 NE10      29.96F
GREENSBORO     RAIN      51  51 100 NE14      30.02F FOG
WINSTON-SALEM  LGT RAIN  51  48  89 NE10G25   30.02F FOG
RALEIGH-DURHAM LGT RAIN  54  52  93 NE12      30.02F
FORT BRAGG     CLOUDY    58  54  87 E10       29.98F
FAYETTEVILLE   CLOUDY    60  56  86 NE9       29.98F
BURLINGTON     RAIN      53  52  96 N10       30.04R FOG
LAURINBURG     CLOUDY    60  55  83 E15       29.97F
$$

NCZ011-015-027-028-043-044-047-080-103-231800-
NORTHEASTERN NORTH CAROLINA

CITY           SKY/WX    TMP DP  RH WIND       PRES   REMARKS
ROCKY MT-WILSO CLOUDY    57  53  86 NE14      30.04F
GREENVILLE     CLOUDY    59  54  82 NE9       30.05F
WASHINGTON     CLOUDY    58  54  85 NE13      30.03F
ELIZABETH CITY PTSUNNY   60  54  80 NE16      30.06S
MANTEO         CLOUDY    56  52  85 NE17      30.04S
CAPE HATTERAS  CLOUDY    63  57  81 NE13G23   30.00S HAZE
$$

NCZ078-087-090-091-093-098-101-231800-
SOUTHEASTERN NORTH CAROLINA

CITY           SKY/WX    TMP DP  RH WIND       PRES   REMARKS
LUMBERTON      CLOUDY    59  57  93 E9G20     29.96F
GOLDSBORO      LGT RAIN  59  59 100 NE13      29.99F
KINSTON        CLOUDY    59  54  82 NE13      30.02F
KENANSVILLE    CLOUDY    59  54  82 NE5       30.00S
NEW BERN       CLOUDY    60  58  92 NE13      30.01S
CHERRY POINT   NOT AVBL
BEAUFORT       CLOUDY    66  62  87 NE10G18   29.97F
JACKSONVILLE   NOT AVBL
WILMINGTON     CLOUDY    64  62  93 NE10      29.96F
$$




USA.gov is the U.S. government's official web portal to all federal, state and local government web resources and services.